Overview Statistics Trail Chart Weather Telemetry Raw packets
 

This is the latest recevied weather packets stored in our database for station/object W0AKY-13. If no packets are shown the sender has not sent any weather packets the latest 10 day(s).

<< 1 2 3 4 5 6 7 >>
Time Temp. Humidity Pressure Rain* Wind** Luminosity Snow
1788639072 35.56° C 58% 1015.4 hPa 0 mm - 471 W/m² -
1788638768 35.56° C 59% 1015.1 hPa 0 mm - 481 W/m² -
1788638462 36.11° C 58% 1015.6 hPa 0 mm - 483 W/m² -
1788638156 35.56° C 60% 1015.6 hPa 0 mm - 498 W/m² -
1788637851 35° C 60% 1015.7 hPa 0 mm - 507 W/m² -
1788637551 34.44° C 61% 1015.7 hPa 0 mm - 512 W/m² -
1788637250 33.89° C 62% 1015.8 hPa 0 mm - 524 W/m² -
1788636945 34.44° C 63% 1015.9 hPa 0 mm - 91 W/m² -
1788636641 34.44° C 63% 1015.9 hPa 0 mm - 553 W/m² -
1788636336 34.44° C 61% 1016.2 hPa 0 mm - 550 W/m² -
1788636032 35° C 58% 1016.3 hPa 0 mm - 652 W/m² -
1788635730 37.22° C 53% 1016.4 hPa 0 mm - 380 W/m² -
1788635430 37.22° C 49% 1016.3 hPa 0 mm - 646 W/m² -
1788635142 36.67° C 53% 1016.4 hPa 0 mm - 572 W/m² -
1788634822 36.67° C 57% 1016.5 hPa 0 mm - 553 W/m² -
1788634522 37.22° C 54% 1016.3 hPa 0 mm - 558 W/m² -
1788634221 37.78° C 51% 1016.6 hPa 0 mm - 563 W/m² -
1788633921 37.22° C 52% 1016.4 hPa 0 mm - 565 W/m² -
1788633619 36.67° C 54% 1016.6 hPa 0 mm - 568 W/m² -
1788633314 36.67° C 51% 1016.5 hPa 0 mm - 564 W/m² -
1788633009 36.11° C 55% 1017 hPa 0 mm - 568 W/m² -
1788632709 36.11° C 55% 1016.9 hPa 0 mm - 572 W/m² -
1788632403 36.67° C 55% 1016.7 hPa 0 mm - 573 W/m² -
1788632098 36.11° C 56% 1016.4 hPa 0 mm - 574 W/m² -
1788631797 36.11° C 54% 1016.6 hPa 0 mm - 572 W/m² -

* Rain latest hour (hover to see other rain measurements)
** Current wind speed in m/s (hover to see current wind gust speed)